Location: Unspecified
(0.0000°N, 0.0000°E)
Time: 13:21:41
(UTC+00:00)

deb Blok Kosmos - Pass Details

Date: 20 November 2025
Orbit: 1344 x 1638 km, 56.1° (Epoch: 13 December)

Event Time Altitude Azimuth Distance (km) Brightness Sun altitude
Rises 20:14:10 0° 192° (SSW) 4,856 ? -34.6°
Reaches altitude 10° 20:17:44 10° 182° (S) 3,874 ? -35.4°
Enters shadow 20:23:54 30° 147° (SSE) 2,604 ? -36.8°
